| time (UTC) | temp C | wind direction | speed KPH | gust KPH | rain 1hr cm | rain 24hr cm | rain mn cm | humidity % | barometer mb |
| 20260506002554 | 26 | 165 | 8.0 | 14.5 | 0.00 | 0.00 | 0.00 | 74 | 1005.7 |
| 20260506002051 | 26 | 175 | 8.0 | 9.7 | 0.00 | 0.00 | 0.00 | 74 | 1005.6 |
| 20260506001547 | 26 | 176 | 4.8 | 12.9 | 0.00 | 0.00 | 0.00 | 74 | 1005.7 |
| 20260506001044 | 26 | 145 | 6.4 | 9.7 | 0.00 | 0.00 | 0.00 | 74 | 1005.5 |
| 20260506000542 | 26 | 158 | 4.8 | 11.3 | 0.00 | 0.00 | 0.00 | 73 | 1005.4 |
| 20260506000039 | 26 | 151 | 4.8 | 12.9 | 0.00 | 0.00 | 0.00 | 73 | 1005.3 |
| 20260505235537 | 26 | 217 | 4.8 | 9.7 | 0.00 | 0.00 | 0.00 | 73 | 1005.2 |
| 20260505235034 | 26 | 190 | 8.0 | 12.9 | 0.00 | 0.00 | 0.00 | 72 | 1005.5 |
| 20260505234531 | 26 | 159 | 4.8 | 11.3 | 0.00 | 0.00 | 0.00 | 73 | 1005.3 |
| 20260505234027 | 26 | 175 | 4.8 | 8.0 | 0.00 | 0.00 | 0.00 | 73 | 1005.5 |
| 20260505233525 | 26 | 167 | 9.7 | 16.1 | 0.00 | 0.00 | 0.00 | 72 | 1005.5 |
| 20260505233022 | 26 | 183 | 4.8 | 16.1 | 0.00 | 0.00 | 0.00 | 71 | 1005.3 |
| 20260505232520 | 27 | 193 | 6.4 | 14.5 | 0.00 | 0.00 | 0.00 | 71 | 1005.3 |
| 20260505232017 | 27 | 160 | 9.7 | 12.9 | 0.00 | 0.00 | 0.00 | 70 | 1005.3 |
| 20260505231514 | 27 | 181 | 8.0 | 16.1 | 0.00 | 0.00 | 0.00 | 71 | 1005.3 |
| 20260505231013 | 27 | 162 | 6.4 | 14.5 | 0.00 | 0.00 | 0.00 | 71 | 1005.2 |
| 20260505230510 | 27 | 143 | 11.3 | 19.3 | 0.00 | 0.00 | 0.00 | 70 | 1005.3 |
| 20260505230007 | 27 | 161 | 8.0 | 16.1 | 0.00 | 0.00 | 0.00 | 69 | 1005.3 |
| 20260505225503 | 28 | 165 | 11.3 | 17.7 | 0.00 | 0.00 | 0.00 | 68 | 1005.1 |
| 20260505224959 | 28 | 150 | 12.9 | 27.4 | 0.00 | 0.00 | 0.00 | 68 | 1005.0 |
| 20260505224456 | 28 | 170 | 8.0 | 14.5 | 0.00 | 0.00 | 0.00 | 67 | 1004.8 |
| 20260505223953 | 28 | 171 | 14.5 | 17.7 | 0.00 | 0.00 | 0.00 | 67 | 1005.2 |
| 20260505223450 | 28 | 173 | 9.7 | 12.9 | 0.00 | 0.00 | 0.00 | 68 | 1005.1 |
| 20260505222946 | 28 | 190 | 3.2 | 12.9 | 0.00 | 0.00 | 0.00 | 68 | 1005.2 |
| 20260505222443 | 28 | 169 | 9.7 | 17.7 | 0.00 | 0.00 | 0.00 | 68 | 1005.1 |
| 20260505221938 | 28 | 170 | 8.0 | 17.7 | 0.00 | 0.00 | 0.00 | 68 | 1005.1 |
| 20260505221436 | 28 | 204 | 1.6 | 12.9 | 0.00 | 0.00 | 0.00 | 68 | 1005.2 |
| 20260505220933 | 27 | 150 | 6.4 | 12.9 | 0.00 | 0.00 | 0.00 | 70 | 1005.1 |
| 20260505220430 | 28 | 185 | 6.4 | 11.3 | 0.00 | 0.00 | 0.00 | 69 | 1005.2 |
| 20260505215928 | 28 | 165 | 11.3 | 16.1 | 0.00 | 0.00 | 0.00 | 67 | 1005.3 |
| 20260505215426 | 28 | 171 | 11.3 | 14.5 | 0.00 | 0.00 | 0.00 | 66 | 1005.5 |
| 20260505214923 | 28 | 155 | 8.0 | 16.1 | 0.00 | 0.00 | 0.00 | 67 | 1005.1 |
| 20260505214421 | 28 | 165 | 4.8 | 22.5 | 0.00 | 0.00 | 0.00 | 68 | 1005.2 |
| 20260505213918 | 28 | 162 | 14.5 | 19.3 | 0.00 | 0.00 | 0.00 | 67 | 1005.2 |
| 20260505213416 | 27 | 147 | 6.4 | 12.9 | 0.00 | 0.00 | 0.00 | 68 | 1005.1 |
| 20260505212912 | 27 | 147 | 9.7 | 12.9 | 0.00 | 0.00 | 0.00 | 69 | 1005.4 |
| 20260505212409 | 27 | 161 | 8.0 | 14.5 | 0.00 | 0.00 | 0.00 | 68 | 1005.5 |
| 20260505211905 | 27 | 221 | 6.4 | 14.5 | 0.00 | 0.00 | 0.00 | 68 | 1005.5 |
| 20260505211403 | 27 | 162 | 9.7 | 9.7 | 0.00 | 0.00 | 0.00 | 68 | 1005.5 |
| 20260505210859 | 27 | 179 | 6.4 | 14.5 | 0.00 | 0.00 | 0.00 | 68 | 1005.6 |
| 20260505210356 | 27 | 161 | 4.8 | 16.1 | 0.00 | 0.00 | 0.00 | 67 | 1005.7 |
| 20260505205852 | 29 | 151 | 17.7 | 19.3 | 0.00 | 0.00 | 0.00 | 65 | 1005.6 |
| 20260505205351 | 28 | 12 | 4.8 | 9.7 | 0.00 | 0.00 | 0.00 | 66 | 1005.5 |
| 20260505204847 | 29 | 104 | 3.2 | 16.1 | 0.00 | 0.00 | 0.00 | 65 | 1005.5 |
| 20260505204345 | 29 | 149 | 9.7 | 12.9 | 0.00 | 0.00 | 0.00 | 67 | 1005.5 |
| 20260505203842 | 28 | 198 | 3.2 | 16.1 | 0.00 | 0.00 | 0.00 | 65 | 1005.5 |
| 20260505203338 | 28 | 156 | 6.4 | 9.7 | 0.00 | 0.00 | 0.00 | 66 | 1005.5 |
| 20260505202835 | 28 | 214 | 9.7 | 16.1 | 0.00 | 0.00 | 0.00 | 67 | 1005.6 |
| 20260505202331 | 27 | 162 | 9.7 | 22.5 | 0.00 | 0.00 | 0.00 | 69 | 1005.7 |
| 20260505201828 | 27 | 149 | 14.5 | 27.4 | 0.00 | 0.00 | 0.00 | 69 | 1005.8 |
| 20260505201326 | 27 | 175 | 8.0 | 22.5 | 0.00 | 0.00 | 0.00 | 68 | 1005.8 |
| 20260505200824 | 27 | 139 | 14.5 | 19.3 | 0.00 | 0.00 | 0.00 | 70 | 1005.8 |
| 20260505200320 | 27 | 196 | 6.4 | 16.1 | 0.00 | 0.00 | 0.00 | 70 | 1005.8 |
| 20260505195815 | 27 | 185 | 8.0 | 16.1 | 0.00 | 0.00 | 0.00 | 69 | 1006.0 |
| 20260505195314 | 27 | 199 | 6.4 | 20.9 | 0.00 | 0.00 | 0.00 | 70 | 1005.7 |
| 20260505194810 | 27 | 147 | 19.3 | 22.5 | 0.00 | 0.00 | 0.00 | 68 | 1005.7 |
| 20260505194308 | 27 | 183 | 6.4 | 16.1 | 0.00 | 0.00 | 0.00 | 69 | 1005.8 |
| 20260505193803 | 27 | 206 | 4.8 | 11.3 | 0.00 | 0.00 | 0.00 | 70 | 1006.0 |
| 20260505193301 | 27 | 144 | 8.0 | 8.0 | 0.00 | 0.00 | 0.00 | 70 | 1005.8 |
| 20260505192759 | 26 | 163 | 8.0 | 22.5 | 0.00 | 0.00 | 0.00 | 70 | 1005.9 |
| 20260505192256 | 27 | 149 | 4.8 | 19.3 | 0.00 | 0.00 | 0.00 | 70 | 1006.0 |
| 20260505191754 | 26 | 158 | 11.3 | 16.1 | 0.00 | 0.00 | 0.00 | 70 | 1005.9 |
| 20260505191252 | 26 | 191 | 4.8 | 22.5 | 0.00 | 0.00 | 0.00 | 70 | 1006.2 |
| 20260505190748 | 26 | 188 | 8.0 | 19.3 | 0.00 | 0.00 | 0.00 | 71 | 1006.0 |
| 20260505190243 | 26 | 153 | 9.7 | 19.3 | 0.00 | 0.00 | 0.00 | 70 | 1006.1 |
| 20260505185740 | 26 | 115 | 4.8 | 22.5 | 0.00 | 0.00 | 0.00 | 71 | 1005.9 |
| 20260505185237 | 26 | 155 | 9.7 | 17.7 | 0.00 | 0.00 | 0.00 | 71 | 1005.8 |
| 20260505184732 | 26 | 170 | 9.7 | 22.5 | 0.00 | 0.00 | 0.00 | 71 | 1005.8 |
| 20260505184230 | 26 | 174 | 8.0 | 25.7 | 0.00 | 0.00 | 0.00 | 70 | 1005.9 |
| 20260505183727 | 26 | 163 | 6.4 | 27.4 | 0.00 | 0.00 | 0.00 | 71 | 1005.9 |
| 20260505183224 | 26 | 173 | 6.4 | 19.3 | 0.00 | 0.00 | 0.00 | 71 | 1005.8 |
| 20260505182720 | 26 | 157 | 9.7 | 11.3 | 0.00 | 0.00 | 0.00 | 70 | 1005.8 |
| 20260505182218 | 26 | 248 | 6.4 | 14.5 | 0.00 | 0.00 | 0.00 | 69 | 1005.8 |
| 20260505181714 | 27 | 162 | 19.3 | 24.1 | 0.00 | 0.00 | 0.00 | 68 | 1006.0 |
| 20260505181212 | 27 | 267 | 4.8 | 11.3 | 0.00 | 0.00 | 0.00 | 69 | 1005.8 |
| 20260505180708 | 27 | 172 | 11.3 | 20.9 | 0.00 | 0.00 | 0.00 | 69 | 1005.8 |
| 20260505180205 | 26 | 171 | 8.0 | 29.0 | 0.00 | 0.00 | 0.00 | 70 | 1005.8 |
| 20260505175700 | 26 | 182 | 11.3 | 25.7 | 0.00 | 0.00 | 0.00 | 71 | 1005.7 |
| 20260505175157 | 26 | 157 | 12.9 | 35.4 | 0.00 | 0.00 | 0.00 | 70 | 1005.8 |
| 20260505174654 | 26 | 164 | 11.3 | 22.5 | 0.00 | 0.00 | 0.00 | 70 | 1006.1 |
| 20260505174150 | 26 | 168 | 11.3 | 19.3 | 0.00 | 0.00 | 0.00 | 70 | 1005.9 |
| 20260505173647 | 26 | 172 | 16.1 | 22.5 | 0.00 | 0.00 | 0.00 | 70 | 1006.2 |
| 20260505173144 | 26 | 155 | 16.1 | 22.5 | 0.00 | 0.00 | 0.00 | 70 | 1006.2 |
| 20260505172641 | 25 | 167 | 14.5 | 29.0 | 0.00 | 0.00 | 0.00 | 72 | 1006.2 |
| 20260505172138 | 26 | 167 | 9.7 | 30.6 | 0.00 | 0.00 | 0.00 | 70 | 1006.1 |
| 20260505171637 | 25 | 156 | 11.3 | 20.9 | 0.00 | 0.00 | 0.00 | 73 | 1006.4 |
| 20260505171135 | 25 | 173 | 11.3 | 20.9 | 0.00 | 0.00 | 0.00 | 71 | 1006.7 |
| 20260505170632 | 25 | 147 | 9.7 | 22.5 | 0.00 | 0.00 | 0.00 | 73 | 1006.8 |
| 20260505170128 | 25 | 166 | 16.1 | 24.1 | 0.00 | 0.00 | 0.00 | 72 | 1006.8 |
| 20260505165623 | 25 | 185 | 12.9 | 16.1 | 0.00 | 0.00 | 0.00 | 73 | 1006.7 |
| 20260505165120 | 25 | 168 | 14.5 | 22.5 | 0.00 | 0.00 | 0.00 | 73 | 1006.4 |
| 20260505164615 | 25 | 179 | 12.9 | 25.7 | 0.00 | 0.00 | 0.00 | 73 | 1006.3 |
| 20260505164113 | 25 | 174 | 12.9 | 25.7 | 0.00 | 0.00 | 0.00 | 73 | 1006.4 |
| 20260505163612 | 25 | 158 | 11.3 | 27.4 | 0.00 | 0.00 | 0.00 | 75 | 1006.0 |
| 20260505163109 | 25 | 161 | 14.5 | 29.0 | 0.00 | 0.00 | 0.00 | 73 | 1006.1 |
| 20260505162606 | 25 | 166 | 4.8 | 19.3 | 0.00 | 0.00 | 0.00 | 74 | 1006.0 |
| 20260505162104 | 24 | 220 | 3.2 | 14.5 | 0.00 | 0.00 | 0.00 | 76 | 1005.9 |
| 20260505161600 | 24 | 180 | 11.3 | 27.4 | 0.00 | 0.00 | 0.00 | 75 | 1006.0 |
| 20260505161058 | 24 | 185 | 12.9 | 22.5 | 0.00 | 0.00 | 0.00 | 76 | 1005.9 |
| 20260505160555 | 24 | 165 | 14.5 | 24.1 | 0.00 | 0.00 | 0.00 | 78 | 1005.8 |
| 20260505153032 | 23 | 179 | 12.9 | 24.1 | 0.00 | 0.00 | 0.00 | 77 | 1006.3 |
| 20260505152529 | 23 | 171 | 11.3 | 19.3 | 0.00 | 0.00 | 0.00 | 78 | 1006.1 |
| 20260505152025 | 23 | 165 | 14.5 | 25.7 | 0.00 | 0.00 | 0.00 | 78 | 1006.0 |
| 20260505151520 | 22 | 226 | 8.0 | 20.9 | 0.00 | 0.00 | 0.00 | 79 | 1006.2 |
| 20260505151017 | 23 | 173 | 8.0 | 27.4 | 0.00 | 0.00 | 0.00 | 78 | 1006.0 |
| 20260505150514 | 23 | 177 | 11.3 | 14.5 | 0.00 | 0.00 | 0.00 | 80 | 1005.9 |
| 20260505140439 | 21 | 166 | 8.0 | 20.9 | 0.00 | 0.00 | 0.00 | 82 | 1006.2 |
| 20260505124852 | 21 | 176 | 3.2 | 19.3 | 0.00 | 0.00 | 0.00 | 84 | 1006.0 |
| 20260505124349 | 21 | 167 | 6.4 | 20.9 | 0.00 | 0.00 | 0.00 | 84 | 1005.9 |
| 20260505123845 | 21 | 154 | 11.3 | 24.1 | 0.00 | 0.00 | 0.00 | 84 | 1005.7 |
| 20260505123342 | 21 | 181 | 8.0 | 20.9 | 0.00 | 0.00 | 0.00 | 84 | 1005.9 |
| 20260505122838 | 21 | 148 | 9.7 | 16.1 | 0.00 | 0.00 | 0.00 | 84 | 1005.9 |
| 20260505122336 | 21 | 143 | 11.3 | 25.7 | 0.00 | 0.00 | 0.00 | 84 | 1005.7 |
| 20260505121832 | 21 | 179 | 9.7 | 16.1 | 0.00 | 0.00 | 0.00 | 84 | 1005.6 |
| 20260505121329 | 21 | 168 | 12.9 | 27.4 | 0.00 | 0.00 | 0.00 | 84 | 1005.6 |
| 20260505120825 | 21 | 164 | 8.0 | 17.7 | 0.00 | 0.00 | 0.00 | 84 | 1005.7 |
| 20260505120321 | 21 | 148 | 17.7 | 27.4 | 0.00 | 0.00 | 0.00 | 84 | 1005.4 |
| 20260505115820 | 21 | 139 | 11.3 | 19.3 | 0.00 | 0.00 | 0.00 | 83 | 1005.3 |
| 20260505115317 | 21 | 148 | 12.9 | 22.5 | 0.00 | 0.00 | 0.00 | 83 | 1005.4 |
| 20260505114815 | 21 | 159 | 9.7 | 14.5 | 0.00 | 0.00 | 0.00 | 83 | 1005.4 |
| 20260505114311 | 21 | 126 | 8.0 | 25.7 | 0.00 | 0.00 | 0.00 | 83 | 1005.4 |
| 20260505113808 | 21 | 137 | 16.1 | 22.5 | 0.00 | 0.00 | 0.00 | 83 | 1005.1 |
| 20260505113304 | 21 | 151 | 8.0 | 16.1 | 0.00 | 0.00 | 0.00 | 83 | 1005.1 |
| 20260505112800 | 21 | 160 | 6.4 | 24.1 | 0.00 | 0.00 | 0.00 | 83 | 1005.1 |
| 20260505112258 | 21 | 147 | 16.1 | 22.5 | 0.00 | 0.00 | 0.00 | 83 | 1005.3 |
| 20260505111758 | 21 | 172 | 11.3 | 24.1 | 0.00 | 0.00 | 0.00 | 83 | 1005.3 |
| 20260505111254 | 21 | 154 | 11.3 | 24.1 | 0.00 | 0.00 | 0.00 | 82 | 1005.2 |
| 20260505110750 | 21 | 171 | 6.4 | 24.1 | 0.00 | 0.00 | 0.00 | 83 | 1005.5 |
| 20260505110248 | 21 | 176 | 14.5 | 22.5 | 0.00 | 0.00 | 0.00 | 82 | 1005.2 |
| 20260505101722 | 21 | 168 | 12.9 | 29.0 | 0.00 | 0.00 | 0.00 | 82 | 1005.6 |
| 20260505101218 | 21 | 138 | 14.5 | 20.9 | 0.00 | 0.00 | 0.00 | 82 | 1005.6 |
| 20260505100715 | 21 | 173 | 4.8 | 16.1 | 0.00 | 0.00 | 0.00 | 82 | 1005.7 |
| 20260505100212 | 21 | 163 | 12.9 | 17.7 | 0.00 | 0.00 | 0.00 | 82 | 1005.5 |
| 20260505095707 | 21 | 155 | 12.9 | 20.9 | 0.00 | 0.00 | 0.00 | 82 | 1005.5 |
| 20260505095205 | 21 | 139 | 12.9 | 27.4 | 0.00 | 0.00 | 0.00 | 82 | 1005.5 |
| 20260505094700 | 21 | 168 | 6.4 | 24.1 | 0.00 | 0.00 | 0.00 | 82 | 1005.6 |
| 20260505094157 | 21 | 152 | 4.8 | 27.4 | 0.00 | 0.00 | 0.00 | 82 | 1005.6 |
| 20260505093653 | 21 | 139 | 14.5 | 19.3 | 0.00 | 0.00 | 0.00 | 82 | 1005.4 |
| 20260505093151 | 21 | 149 | 9.7 | 17.7 | 0.00 | 0.00 | 0.00 | 82 | 1005.4 |
| 20260505092648 | 21 | 151 | 17.7 | 25.7 | 0.00 | 0.00 | 0.00 | 82 | 1005.6 |
| 20260505092147 | 21 | 174 | 9.7 | 27.4 | 0.00 | 0.00 | 0.00 | 82 | 1005.7 |
| 20260505091643 | 21 | 159 | 14.5 | 22.5 | 0.00 | 0.00 | 0.00 | 82 | 1005.5 |
| 20260505091141 | 21 | 153 | 9.7 | 17.7 | 0.00 | 0.00 | 0.00 | 82 | 1005.8 |
| 20260505090638 | 21 | 171 | 6.4 | 25.7 | 0.00 | 0.00 | 0.00 | 82 | 1005.6 |
| 20260505090137 | 21 | 149 | 4.8 | 20.9 | 0.00 | 0.00 | 0.00 | 82 | 1005.7 |
| 20260505085634 | 21 | 164 | 14.5 | 25.7 | 0.00 | 0.00 | 0.00 | 82 | 1005.8 |
| 20260505085132 | 21 | 139 | 16.1 | 22.5 | 0.00 | 0.00 | 0.00 | 82 | 1005.3 |
| 20260505084629 | 21 | 166 | 11.3 | 25.7 | 0.00 | 0.00 | 0.00 | 82 | 1005.5 |
| 20260505084128 | 21 | 151 | 8.0 | 24.1 | 0.00 | 0.00 | 0.00 | 82 | 1005.5 |
| 20260505083625 | 21 | 156 | 9.7 | 25.7 | 0.00 | 0.00 | 0.00 | 82 | 1005.3 |
| 20260505083121 | 21 | 169 | 20.9 | 24.1 | 0.00 | 0.00 | 0.00 | 82 | 1005.5 |
| 20260505082617 | 21 | 149 | 12.9 | 24.1 | 0.00 | 0.00 | 0.00 | 82 | 1005.3 |
| 20260505082114 | 20 | 149 | 20.9 | 22.5 | 0.00 | 0.00 | 0.00 | 82 | 1005.6 |
| 20260505081610 | 21 | 158 | 14.5 | 24.1 | 0.00 | 0.00 | 0.00 | 82 | 1005.7 |
| 20260505081108 | 21 | 174 | 11.3 | 24.1 | 0.00 | 0.00 | 0.00 | 81 | 1005.8 |
| 20260505080603 | 21 | 177 | 14.5 | 27.4 | 0.00 | 0.00 | 0.00 | 81 | 1005.9 |
| 20260505080101 | 21 | 168 | 12.9 | 22.5 | 0.00 | 0.00 | 0.00 | 81 | 1006.1 |
| 20260505075556 | 21 | 154 | 9.7 | 20.9 | 0.00 | 0.00 | 0.00 | 81 | 1005.9 |
| 20260505075053 | 21 | 155 | 11.3 | 25.7 | 0.00 | 0.00 | 0.00 | 81 | 1006.1 |
| 20260505074550 | 21 | 155 | 8.0 | 29.0 | 0.00 | 0.00 | 0.00 | 80 | 1006.1 |
| 20260505074047 | 21 | 143 | 16.1 | 22.5 | 0.00 | 0.00 | 0.00 | 80 | 1006.0 |
| 20260505073544 | 21 | 141 | 12.9 | 24.1 | 0.00 | 0.00 | 0.00 | 80 | 1006.0 |
| 20260505073044 | 21 | 144 | 19.3 | 20.9 | 0.00 | 0.00 | 0.00 | 80 | 1006.1 |
| 20260505072538 | 21 | 144 | 8.0 | 22.5 | 0.00 | 0.00 | 0.00 | 79 | 1006.1 |
| 20260505072035 | 21 | 143 | 12.9 | 22.5 | 0.00 | 0.00 | 0.00 | 79 | 1006.0 |
| 20260505071530 | 21 | 151 | 6.4 | 19.3 | 0.00 | 0.00 | 0.00 | 79 | 1006.2 |
| 20260505071029 | 21 | 165 | 11.3 | 33.8 | 0.00 | 0.00 | 0.00 | 78 | 1006.0 |
| 20260505070526 | 21 | 143 | 20.9 | 29.0 | 0.00 | 0.00 | 0.00 | 78 | 1006.1 |
| 20260505070022 | 21 | 156 | 12.9 | 27.4 | 0.00 | 0.00 | 0.00 | 78 | 1006.2 |
| 20260505065518 | 21 | 171 | 11.3 | 20.9 | 0.00 | 0.00 | 0.00 | 78 | 1006.2 |
| 20260505065014 | 21 | 152 | 14.5 | 19.3 | 0.00 | 0.00 | 0.00 | 78 | 1006.4 |
| 20260505064511 | 21 | 152 | 14.5 | 17.7 | 0.00 | 0.00 | 0.00 | 77 | 1006.4 |
| 20260505064010 | 21 | 160 | 6.4 | 20.9 | 0.00 | 0.00 | 0.00 | 77 | 1006.6 |
| 20260505063507 | 21 | 164 | 6.4 | 22.5 | 0.00 | 0.00 | 0.00 | 76 | 1006.7 |
| 20260505063008 | 21 | 178 | 9.7 | 20.9 | 0.00 | 0.00 | 0.00 | 76 | 1006.8 |
| 20260505062505 | 21 | 161 | 9.7 | 32.2 | 0.00 | 0.00 | 0.00 | 76 | 1006.7 |
| 20260505062002 | 21 | 165 | 8.0 | 24.1 | 0.00 | 0.00 | 0.00 | 76 | 1006.5 |
| 20260505061500 | 21 | 146 | 14.5 | 29.0 | 0.00 | 0.00 | 0.00 | 75 | 1006.6 |
| 20260505060957 | 21 | 167 | 12.9 | 22.5 | 0.00 | 0.00 | 0.00 | 75 | 1006.9 |
| 20260505060454 | 21 | 144 | 17.7 | 25.7 | 0.00 | 0.00 | 0.00 | 75 | 1006.6 |
| 20260505055950 | 21 | 131 | 8.0 | 20.9 | 0.00 | 0.00 | 0.00 | 75 | 1006.7 |
| 20260505055446 | 22 | 221 | 9.7 | 22.5 | 0.00 | 0.00 | 0.00 | 74 | 1006.7 |
| 20260505054943 | 22 | 178 | 14.5 | 22.5 | 0.00 | 0.00 | 0.00 | 74 | 1006.7 |
| 20260505054441 | 22 | 154 | 11.3 | 27.4 | 0.00 | 0.00 | 0.00 | 74 | 1006.7 |
| 20260505053938 | 22 | 169 | 12.9 | 27.4 | 0.00 | 0.00 | 0.00 | 73 | 1006.9 |
| 20260505053435 | 22 | 151 | 16.1 | 27.4 | 0.00 | 0.00 | 0.00 | 74 | 1007.0 |
| 20260505052932 | 22 | 181 | 12.9 | 27.4 | 0.00 | 0.00 | 0.00 | 73 | 1006.9 |
| 20260505052429 | 22 | 172 | 20.9 | 29.0 | 0.00 | 0.00 | 0.00 | 73 | 1006.9 |
| 20260505051926 | 22 | 141 | 22.5 | 25.7 | 0.00 | 0.00 | 0.00 | 73 | 1007.0 |
| 20260505051423 | 22 | 140 | 11.3 | 25.7 | 0.00 | 0.00 | 0.00 | 73 | 1007.1 |
| 20260505050921 | 22 | 140 | 14.5 | 24.1 | 0.00 | 0.00 | 0.00 | 73 | 1007.0 |
| 20260505050420 | 22 | 172 | 9.7 | 24.1 | 0.00 | 0.00 | 0.00 | 73 | 1007.1 |
| 20260505041347 | 22 | 144 | 11.3 | 17.7 | 0.00 | 0.00 | 0.00 | 71 | 1007.4 |
| 20260505040844 | 22 | 140 | 12.9 | 20.9 | 0.00 | 0.00 | 0.00 | 71 | 1007.6 |
| 20260505040342 | 21 | 172 | 9.7 | 16.1 | 0.00 | 0.00 | 0.00 | 71 | 1007.6 |
| 20260505035838 | 22 | 123 | 9.7 | 17.7 | 0.00 | 0.00 | 0.00 | 71 | 1007.4 |
| 20260505035334 | 22 | 139 | 8.0 | 22.5 | 0.00 | 0.00 | 0.00 | 70 | 1007.5 |
| 20260505034832 | 22 | 134 | 24.1 | 24.1 | 0.00 | 0.00 | 0.00 | 70 | 1007.4 |
| 20260505034328 | 21 | 160 | 9.7 | 14.5 | 0.00 | 0.00 | 0.00 | 71 | 1007.7 |
| 20260505033825 | 22 | 164 | 12.9 | 19.3 | 0.00 | 0.00 | 0.00 | 70 | 1007.5 |
| 20260505033322 | 22 | 150 | 11.3 | 14.5 | 0.00 | 0.00 | 0.00 | 70 | 1007.7 |
| 20260505032820 | 21 | 142 | 14.5 | 19.3 | 0.00 | 0.00 | 0.00 | 70 | 1007.5 |
| 20260505032316 | 21 | 138 | 16.1 | 19.3 | 0.00 | 0.00 | 0.00 | 70 | 1007.6 |
| 20260505031814 | 22 | 140 | 8.0 | 22.5 | 0.00 | 0.00 | 0.00 | 69 | 1007.7 |
| 20260505031310 | 22 | 140 | 8.0 | 17.7 | 0.00 | 0.00 | 0.00 | 69 | 1007.8 |
| 20260505030807 | 22 | 127 | 14.5 | 16.1 | 0.00 | 0.00 | 0.00 | 69 | 1007.7 |
| 20260505030303 | 22 | 119 | 9.7 | 16.1 | 0.00 | 0.00 | 0.00 | 69 | 1007.9 |
| 20260505025758 | 22 | 128 | 9.7 | 16.1 | 0.00 | 0.00 | 0.00 | 68 | 1007.8 |
| 20260505025256 | 22 | 153 | 4.8 | 16.1 | 0.00 | 0.00 | 0.00 | 68 | 1007.5 |
| 20260505024754 | 22 | 147 | 9.7 | 14.5 | 0.00 | 0.00 | 0.00 | 67 | 1007.7 |
| 20260505024252 | 22 | 127 | 9.7 | 20.9 | 0.00 | 0.00 | 0.00 | 67 | 1007.6 |
| 20260505023749 | 22 | 146 | 11.3 | 17.7 | 0.00 | 0.00 | 0.00 | 67 | 1007.5 |
| 20260505023246 | 22 | 158 | 8.0 | 16.1 | 0.00 | 0.00 | 0.00 | 68 | 1007.3 |
| 20260505022743 | 22 | 167 | 9.7 | 17.7 | 0.00 | 0.00 | 0.00 | 67 | 1007.5 |
| 20260505022240 | 22 | 159 | 8.0 | 22.5 | 0.00 | 0.00 | 0.00 | 68 | 1007.5 |
| 20260505021737 | 22 | 154 | 6.4 | 19.3 | 0.00 | 0.00 | 0.00 | 68 | 1007.5 |
| 20260505021234 | 22 | 134 | 12.9 | 17.7 | 0.00 | 0.00 | 0.00 | 68 | 1007.5 |
| 20260505020729 | 22 | 149 | 9.7 | 16.1 | 0.00 | 0.00 | 0.00 | 68 | 1007.4 |
| 20260505020225 | 22 | 134 | 8.0 | 16.1 | 0.00 | 0.00 | 0.00 | 67 | 1007.5 |
| 20260505015723 | 22 | 145 | 8.0 | 14.5 | 0.00 | 0.00 | 0.00 | 67 | 1007.5 |
| 20260505015219 | 22 | 152 | 8.0 | 12.9 | 0.00 | 0.00 | 0.00 | 67 | 1007.8 |
| 20260505014716 | 22 | 141 | 11.3 | 17.7 | 0.00 | 0.00 | 0.00 | 66 | 1007.6 |
| 20260505014214 | 22 | 150 | 8.0 | 11.3 | 0.00 | 0.00 | 0.00 | 66 | 1007.7 |
| 20260505013710 | 22 | 148 | 6.4 | 11.3 | 0.00 | 0.00 | 0.00 | 66 | 1007.4 |
| 20260505013207 | 22 | 140 | 14.5 | 16.1 | 0.00 | 0.00 | 0.00 | 65 | 1007.5 |
| 20260505012706 | 22 | 143 | 3.2 | 11.3 | 0.00 | 0.00 | 0.00 | 65 | 1007.7 |
| 20260505012203 | 22 | 162 | 8.0 | 16.1 | 0.00 | 0.00 | 0.00 | 64 | 1007.6 |
| 20260505011658 | 23 | 144 | 8.0 | 14.5 | 0.00 | 0.00 | 0.00 | 64 | 1007.3 |
| 20260505011155 | 23 | 151 | 12.9 | 14.5 | 0.00 | 0.00 | 0.00 | 63 | 1007.4 |
| 20260505010651 | 23 | 163 | 9.7 | 12.9 | 0.00 | 0.00 | 0.00 | 63 | 1007.6 |
| 20260505010143 | 23 | 173 | 8.0 | 16.1 | 0.00 | 0.00 | 0.00 | 63 | 1007.4 |
| 20260505005639 | 23 | 165 | 4.8 | 14.5 | 0.00 | 0.00 | 0.00 | 63 | 1007.5 |
| 20260505005136 | 23 | 181 | 9.7 | 17.7 | 0.00 | 0.00 | 0.00 | 62 | 1007.4 |
| 20260505004633 | 23 | 143 | 6.4 | 14.5 | 0.00 | 0.00 | 0.00 | 62 | 1007.5 |
| 20260505004129 | 23 | 141 | 6.4 | 16.1 | 0.00 | 0.00 | 0.00 | 61 | 1007.5 |
| 20260505003627 | 23 | 183 | 11.3 | 22.5 | 0.00 | 0.00 | 0.00 | 60 | 1007.4 |
| 20260505003124 | 23 | 119 | 8.0 | 14.5 | 0.00 | 0.00 | 0.00 | 60 | 1007.7 |
| 20260505002620 | 23 | 132 | 12.9 | 16.1 | 0.00 | 0.00 | 0.00 | 60 | 1007.5 |